Weather reports worldwide

Advertisment
Putbus, Germany (10093): temperature & dewpoint: 20.03.2019 08:00:00 - 26.03.2019 08:00:00 (CET)Putbus, Germany (10093): temperature 5cm & temperature -5cm: 20.03.2019 08:00:00 - 26.03.2019 08:00:00 (CET)Putbus, Germany (10093): temperature -20cm & temperature -100cm: 20.03.2019 08:00:00 - 26.03.2019 08:00:00 (CET)Putbus, Germany (10093): wind speed & gusts: 20.03.2019 08:00:00 - 26.03.2019 08:00:00 (CET)Putbus, Germany (10093): wind direction: 20.03.2019 08:00:00 - 26.03.2019 08:00:00 (CET)Putbus, Germany (10093): reduced air pressure: 20.03.2019 08:00:00 - 26.03.2019 08:00:00 (CET)Putbus, Germany (10093): visibility: 20.03.2019 08:00:00 - 26.03.2019 08:00:00 (CET)Putbus, Germany (10093): sunshine duration: 20.03.2019 08:00:00 - 26.03.2019 08:00:00 (CET)Putbus, Germany (10093): precipitation: 20.03.2019 08:00:00 - 26.03.2019 08:00:00 (CET)
Date & Time tt [°C] td [°C] tt 5cm [°C] tt -5cm [°C] tt -20cm [°C] tt -100cm [°C] ff [km/h] ff [kn] fx [km/h] fx [kn] dd ppp [hPa] vv [km] sd [min] rr [mm]
26.03.2019 08:00:00 4,5 2,1 4,6 3,5 4,0 6,9 29 15 45 25 WNW 1019,0 22 6 0,0
26.03.2019 07:00:00 3,8 1,6 2,9 2,8 4,0 6,9 28 15 50 27 WNW 1019,1 27 0 0,0
26.03.2019 06:00:00 3,8 1,7 3,5 2,7 4,0 6,9 29 16 54 29 W 1019,2 21 0 0,0
26.03.2019 05:00:00 3,8 1,4 3,2 2,2 4,0 6,9 29 16 46 25 WNW 1019,3 21 0 0,0
26.03.2019 04:00:00 2,5 2,1 1,0 1,3 4,2 6,9 21 11 32 18 W 1019,6 6 0 0,0
26.03.2019 03:00:00 2,7 2,0 1,0 1,6 4,4 6,9 17 9 29 16 W 1020,1 22 0 0,0
26.03.2019 02:00:00 3,2 2,2 1,5 1,7 4,6 6,9 17 9 29 16 W 1020,7 23 0 0,0
26.03.2019 01:00:00 3,0 2,2 1,4 2,0 4,8 6,9 16 9 29 16 W 1020,9 20 0 0,0
26.03.2019 00:00:00 3,6 2,3 2,3 2,4 5,0 6,9 20 11 32 17 WNW 1021,1 24 0 0,0
25.03.2019 23:00:00 3,9 2,5 2,5 2,6 5,3 6,9 20 11 30 16 NW 1020,8 25 0 0,0
25.03.2019 22:00:00 4,1 2,3 2,4 2,7 5,5 6,9 18 10 27 14 NW 1020,5 29 0 0,0
25.03.2019 21:00:00 3,9 2,6 2,0 2,9 5,9 6,9 16 9 26 14 WNW 1019,9 19 0 0,0
25.03.2019 20:00:00 2,8 1,8 1,0 3,5 6,2 6,9 15 8 20 11 W 1019,3 12 0 0,0
25.03.2019 19:00:00 3,3 1,8 0,9 4,4 6,4 6,9 9 5 15 8 WNW 1018,6 13 21 0,0
25.03.2019 18:00:00 3,8 1,8 2,7 5,8 6,5 6,9 10 6 25 13 N 1017,5 17 31 0,0
25.03.2019 17:00:00 4,7 2,0 5,6 6,8 6,5 6,9 13 7 30 16 N 1016,1 20 4 0,0
25.03.2019 16:00:00 4,8 2,4 5,5 7,2 6,4 6,9 18 10 32 17 N 1015,0 43 1 0,0
25.03.2019 15:00:00 5,7 2,6 7,1 7,8 6,2 6,9 22 12 39 21 NNW 1013,3 31 4 0,0
25.03.2019 14:00:00 5,3 2,3 5,7 7,3 5,9 6,9 21 12 38 20 NW 1012,7 20 1 0,0
25.03.2019 13:00:00 6,3 1,6 8,2 7,8 5,5 6,9 25 14 44 24 NW 1011,8 26 27 0,0
25.03.2019 12:00:00 5,7 2,0 7,4 6,5 5,2 6,9 23 13 39 21 WNW 1011,1 20 2 0,0
25.03.2019 11:00:00 4,9 2,0 5,9 5,7 5,0 6,9 22 12 37 20 WNW 1010,4 24 0 0,0
25.03.2019 10:00:00 4,4 2,5 4,9 4,8 4,8 6,9 19 10 34 18 WNW 1009,6 29 0 0,0
25.03.2019 09:00:00 3,9 2,7 3,9 4,0 4,8 6,9 19 10 30 16 WNW 1008,8 18 0 0,3
25.03.2019 08:00:00 1,9 1,5 2,0 3,0 4,9 6,9 16 8 31 17 WNW 1008,5 9 0 1,2
25.03.2019 07:00:00 2,1 1,5 1,9 2,8 5,0 6,9 16 9 27 15 SW 1008,2 4,5 0 1,5
25.03.2019 06:00:00 2,2 1,5 1,8 2,9 5,1 6,9 14 7 31 17 SW 1008,7 6 0 1,2
25.03.2019 05:00:00 3,3 0,5 2,8 2,9 5,2 6,9 16 8 27 14 SSW 1009,5 17 0 0,0
25.03.2019 04:00:00 3,0 0,5 2,6 2,5 5,4 6,9 14 7 24 13 SSW 1010,8 22 0 0,0
25.03.2019 03:00:00 2,7 0,1 2,0 2,3 5,7 6,9 13 7 23 12 SW 1012,1 23 0 0,0
25.03.2019 02:00:00 2,7 0,0 1,2 2,7 5,9 6,9 9 5 22 12 SW 1013,5 26 0 0,0
25.03.2019 01:00:00 3,9 0,5 2,9 3,5 6,2 6,9 15 8 23 13 WSW 1014,6 24 0 0,0
25.03.2019 00:00:00 3,9 0,6 3,0 3,5 6,4 6,9 13 7 21 11 WSW 1015,8 27 0 0,0
24.03.2019 23:00:00 3,8 0,8 2,8 3,7 6,8 6,9 11 6 20 11 W 1017,0 26 0 0,0
24.03.2019 22:00:00 3,9 0,4 2,2 4,0 7,2 6,9 10 5 15 8 WSW 1017,7 23 0 0,0
24.03.2019 21:00:00 3,5 0,6 1,9 4,4 7,6 6,9 10 5 17 9 WSW 1018,8 24 0 0,0
24.03.2019 20:00:00 4,2 0,8 2,9 5,3 8,0 6,9 11 6 19 10 WSW 1019,5 22 0 0,0
24.03.2019 19:00:00 4,9 1,0 3,5 6,6 8,4 6,9 14 8 24 13 W 1020,2 23 2 0,0
24.03.2019 18:00:00 6,0 0,2 5,0 8,2 8,5 6,9 17 9 29 16 W 1021,0 27 50 0,0
24.03.2019 17:00:00 7,3 1,0 7,9 10,4 8,4 6,9 18 10 32 18 W 1021,6 15 60 0,0
24.03.2019 16:00:00 7,6 2,1 9,8 11,5 8,0 6,9 21 11 35 19 WNW 1022,3 9 60 0,0
24.03.2019 15:00:00 7,7 1,1 9,7 12,2 7,4 6,9 19 10 32 17 W 1023,4 13 60 0,0
24.03.2019 14:00:00 8,1 1,9 11,5 11,4 6,8 6,9 19 10 29 15 W 1023,9 15 57 0,0
24.03.2019 13:00:00 6,9 3,6 9,1 9,3 6,4 6,9 18 10 27 14 W 1024,9 18 6 0,0
24.03.2019 12:00:00 6,4 3,2 7,8 8,2 6,0 6,8 16 9 27 15 W 1025,8 15 0 0,0
24.03.2019 11:00:00 6,3 3,6 7,4 7,6 5,7 6,8 12 6 25 14 WNW 1026,1 15 0 0,0
24.03.2019 10:00:00 6,0 3,9 7,4 6,4 5,4 6,8 13 7 23 12 WNW 1026,9 15 0 0,0
24.03.2019 09:00:00 5,2 3,7 5,8 4,8 5,3 6,8 14 8 22 12 W 1027,3 17 0 0,0
24.03.2019 08:00:00 3,8 2,9 3,8 3,6 5,3 6,8 16 8 20 11 W 1027,5 14 0 0,0
24.03.2019 07:00:00 3,4 2,5 2,5 2,9 5,5 6,8 13 7 21 12 W 1027,6 14 0 0,0
24.03.2019 06:00:00 3,6 2,0 2,4 2,8 5,7 6,8 16 8 23 12 WNW 1027,9 16 0 0,0
24.03.2019 05:00:00 3,5 1,6 1,9 2,9 5,9 6,8 14 8 19 10 WNW 1027,9 18 0 0,0
24.03.2019 04:00:00 3,9 1,7 2,6 3,1 6,2 6,8 15 8 20 11 WNW 1028,2 19 0 0,0
24.03.2019 03:00:00 3,7 1,5 1,7 3,3 6,4 6,8 11 6 19 11 WNW 1028,5 21 0 0,0
24.03.2019 02:00:00 4,0 1,4 2,6 3,5 6,7 6,8 14 7 24 13 NW 1028,4 23 0 0,0
24.03.2019 01:00:00 4,6 1,3 3,1 3,8 7,1 6,8 15 8 26 14 NW 1028,5 26 0 0,0
24.03.2019 00:00:00 5,3 1,1 3,6 4,4 7,4 6,8 17 9 25 14 NW 1028,4 27 0 0,0
23.03.2019 23:00:00 5,7 1,7 3,6 4,8 7,8 6,8 17 9 28 15 WNW 1028,4 25 0 0,0
23.03.2019 22:00:00 6,2 2,7 4,4 5,4 8,2 6,7 17 9 24 13 WNW 1028,4 21 0 0,0
23.03.2019 21:00:00 6,4 4,0 4,5 6,3 8,5 6,7 13 7 23 12 W 1028,2 19 0 0,0
23.03.2019 20:00:00 7,2 4,3 6,0 7,1 8,9 6,7 13 7 27 15 W 1027,6 20 0 0,0
23.03.2019 19:00:00 7,7 4,3 6,0 7,9 9,2 6,7 17 9 29 16 W 1027,4 19 0 0,0
23.03.2019 18:00:00 8,4 4,8 7,4 9,3 9,3 6,7 19 11 35 19 WNW 1026,9 15 33 0,0
23.03.2019 17:00:00 9,4 6,0 9,6 10,9 9,2 6,7 22 12 43 23 W 1026,6 9 57 0,0
23.03.2019 16:00:00 9,9 6,0 11,0 11,9 9,0 6,7 24 13 40 22 WNW 1026,3 8 42 0,0
23.03.2019 15:00:00 10,0 6,2 11,9 12,2 8,6 6,7 29 16 41 22 WNW 1026,0 6 45 0,0
23.03.2019 14:00:00 9,4 7,4 11,7 11,5 8,2 6,7 20 11 39 21 W 1026,1 4,0 5 0,0
23.03.2019 13:00:00 7,9 6,6 10,0 11,5 7,8 6,7 23 12 33 18 WNW 1026,0 4,5 8 0,0
23.03.2019 12:00:00 7,3 6,3 9,1 10,4 7,5 6,7 25 13 34 18 W 1025,4 3,6 4 0,0
23.03.2019 11:00:00 6,8 5,9 8,3 9,1 7,2 6,7 20 11 38 20 W 1025,3 3,3 0 0,0
23.03.2019 10:00:00 6,9 6,3 8,0 8,0 7,1 6,6 22 12 33 18 WNW 1025,1 2,5 0 0,0
23.03.2019 09:00:00 7,3 6,8 7,6 7,6 6,9 6,6 22 12 34 18 W 1024,5 2,1 0 0,0
23.03.2019 08:00:00 7,0 6,8 7,1 6,7 6,9 6,6 13 7 19 10 WSW 1024,1 1,7 0 0,0
23.03.2019 07:00:00 6,3 6,2 6,2 5,4 7,1 6,6 8 4 16 9 SW 1024,3 2,1 0 0,0
23.03.2019 06:00:00 5,8 5,8 5,1 5,5 7,3 6,6 11 6 21 12 SW 1024,3 1,8 0 0,0
23.03.2019 05:00:00 6,1 6,1 5,3 5,9 7,6 6,6 13 7 20 11 S 1024,3 2,0 0 0,0
23.03.2019 04:00:00 6,3 6,3 5,3 6,5 7,7 6,6 10 5 20 11 S 1024,7 2,0 0 0,0
23.03.2019 03:00:00 7,2 7,2 6,7 7,3 7,8 6,6 10 5 28 15 S 1025,4 2,6 0 0,0
23.03.2019 02:00:00 7,7 7,3 7,5 7,5 7,9 6,6 14 8 29 16 SSW 1025,8 3,7 0 0,0
23.03.2019 01:00:00 8,0 7,3 7,7 7,6 8,0 6,6 18 10 30 16 SSW 1026,3 5 0 0,0
23.03.2019 00:00:00 8,4 7,3 8,1 7,8 8,1 6,5 16 9 27 15 SSW 1027,2 7 0 0,0
22.03.2019 23:00:00 8,6 7,3 8,4 8,0 8,1 6,5 13 7 26 14 SSW 1027,9 7 0 0,0
22.03.2019 22:00:00 8,8 7,4 8,6 8,1 8,2 6,5 15 8 29 16 S 1028,5 9 0 0,0
22.03.2019 21:00:00 8,3 7,5 8,2 8,1 8,3 6,5 10 6 20 11 S 1029,1 9 0 0,0
22.03.2019 20:00:00 7,6 7,0 7,7 8,2 8,4 6,5 9 5 19 10 SSE 1029,5 8 0 0,0
22.03.2019 19:00:00 7,0 6,8 7,2 8,4 8,5 6,5 7 4 20 11 SSE 1029,9 6 0 0,0
22.03.2019 18:00:00 7,0 6,7 7,2 8,8 8,6 6,5 10 6 21 11 SE 1030,5 7 0 0,0
22.03.2019 17:00:00 7,3 6,5 7,7 9,5 8,7 6,5 9 5 17 9 SE 1031,0 10 0 0,0
22.03.2019 16:00:00 7,4 6,5 8,0 10,1 8,6 6,5 8 5 14 8 SE 1031,8 9 0 0,0
22.03.2019 15:00:00 8,3 6,8 9,0 10,4 8,5 6,5 4 2 10 6 ESE 1032,1 14 0 0,0
22.03.2019 14:00:00 8,0 6,6 8,7 10,3 8,3 6,4 6 3 12 6 SE 1032,9 16 0 0,0
22.03.2019 13:00:00 8,1 6,5 9,0 10,2 8,2 6,4 7 4 14 8 SW 1033,2 8 0 0,0
22.03.2019 12:00:00 7,5 6,4 8,5 9,8 8,0 6,4 8 4 16 9 SSW 1033,6 13 0 0,0
22.03.2019 11:00:00 7,6 6,7 8,1 9,7 7,8 6,4 8 4 14 8 SSW 1034,0 8 0 0,0
22.03.2019 10:00:00 8,0 6,6 9,0 9,4 7,6 6,4 6 4 13 7 SSW 1033,7 12 0 0,0
22.03.2019 09:00:00 7,7 6,6 8,5 8,5 7,6 6,4 3 2 7 4 SW 1033,6 9 0 0,0
22.03.2019 08:00:00 7,2 7,0 7,7 7,8 7,6 6,4 6 3 16 9 W 1033,6 4,7 0 0,0
22.03.2019 07:00:00 6,8 6,8 6,9 7,3 7,6 6,4 11 6 15 8 WSW 1033,1 2,4 0 0,0
22.03.2019 06:00:00 6,7 6,7 6,7 7,3 7,7 6,4 10 5 14 7 WSW 1032,8 2,2 0 0,0
22.03.2019 05:00:00 6,8 6,8 6,8 7,4 7,8 6,4 10 5 19 11 WNW 1032,6 4,3 0 0,1
22.03.2019 04:00:00 6,8 6,8 6,8 7,5 7,9 6,3 13 7 31 17 NW 1032,8 1,2 0 0,0
22.03.2019 03:00:00 6,7 6,7 6,8 7,7 8,0 6,3 25 13 42 23 WNW 1032,1 2,4 0 0,0
22.03.2019 02:00:00 7,4 7,4 7,5 8,0 8,1 6,3 24 13 48 26 WNW 1031,6 0,8 0 0,0
22.03.2019 01:00:00 7,8 7,8 7,8 8,2 8,2 6,3 31 17 47 25 W 1030,8 1,6 0 0,0
22.03.2019 00:00:00 8,5 7,9 8,4 8,4 8,4 6,3 27 15 46 25 W 1031,3 3,5 0 0,0
21.03.2019 23:00:00 8,7 7,8 8,6 8,6 8,5 6,3 35 19 49 26 W 1031,1 4,0 0 0,0
21.03.2019 22:00:00 8,9 8,0 8,9 8,7 8,6 6,3 31 17 49 26 W 1030,9 3,6 0 0,0
21.03.2019 21:00:00 9,4 7,8 9,3 9,1 8,7 6,3 27 15 41 22 W 1031,2 4,5 0 0,0
21.03.2019 20:00:00 10,2 8,0 9,9 9,4 8,8 6,3 23 12 43 23 W 1031,0 6 0 0,0
21.03.2019 19:00:00 10,3 7,9 10,1 9,7 8,9 6,3 27 15 41 22 W 1030,4 5 0 0,0
21.03.2019 18:00:00 10,3 7,9 10,2 10,2 9,0 6,3 24 13 46 25 W 1030,2 8 0 0,0
21.03.2019 17:00:00 10,4 7,6 10,6 10,8 9,0 6,3 29 15 51 27 WSW 1030,1 9 5 0,0
21.03.2019 16:00:00 9,8 7,8 10,5 11,6 8,9 6,3 24 13 44 24 W 1030,5 9 0 0,0
21.03.2019 15:00:00 10,3 8,2 11,7 12,5 8,5 6,3 23 13 41 22 WNW 1030,4 7 3 0,0
21.03.2019 14:00:00 13,3 9,5 15,0 13,1 8,0 6,3 26 14 48 26 WSW 1030,2 7 38 0,0
21.03.2019 13:00:00 12,7 9,2 14,4 12,3 7,5 6,3 26 14 42 23 WSW 1030,4 7 15 0,0
21.03.2019 12:00:00 11,7 8,8 13,1 11,3 7,1 6,3 25 14 33 18 WSW 1031,0 7 13 0,0
21.03.2019 11:00:00 10,3 8,3 10,7 9,8 6,8 6,3 18 10 35 19 WSW 1031,2 6 0 0,0
21.03.2019 10:00:00 10,1 8,0 10,9 9,0 6,5 6,3 16 9 31 17 WSW 1031,0 6 0 0,0
21.03.2019 09:00:00 9,2 7,7 9,4 8,1 6,3 6,3 19 10 34 18 WSW 1031,1 4,4 0 0,0
21.03.2019 08:00:00 8,8 7,5 8,9 7,3 6,2 6,3 18 10 27 15 WSW 1030,6 5 0 0,0
21.03.2019 07:00:00 8,0 7,2 7,8 6,7 6,2 6,3 14 8 24 13 WSW 1030,4 5 0 0,0
21.03.2019 06:00:00 7,8 7,2 7,6 6,6 6,2 6,3 14 8 25 13 WSW 1030,5 4,7 0 0,0
21.03.2019 05:00:00 7,5 6,9 7,3 6,5 6,2 6,3 18 10 32 17 WSW 1030,5 4,3 0 0,0
21.03.2019 04:00:00 7,2 6,6 7,0 6,4 6,2 6,3 21 11 29 15 WSW 1031,0 4,9 0 0,0
21.03.2019 03:00:00 6,8 6,5 6,7 6,4 6,2 6,3 19 11 33 18 W 1030,9 4,2 0 0,0
21.03.2019 02:00:00 7,0 6,3 6,7 6,4 6,2 6,3 16 9 28 15 W 1031,5 7 0 0,0
21.03.2019 01:00:00 7,1 6,4 6,6 6,4 6,2 6,3 16 9 27 15 W 1031,6 6 0 0,0
21.03.2019 00:00:00 7,4 6,5 6,9 6,5 6,3 6,3 18 10 31 17 W 1031,4 7 0 0,0
20.03.2019 23:00:00 7,2 6,6 6,9 6,5 6,3 6,3 18 10 29 15 W 1030,9 3,8 0 0,0
20.03.2019 22:00:00 7,6 7,0 7,4 7,0 6,3 6,3 18 10 34 18 W 1030,4 2,9 0 0,0
20.03.2019 21:00:00 7,8 7,4 7,5 7,1 6,2 6,3 19 10 36 19 WNW 1030,7 2,8 0 0,0
20.03.2019 20:00:00 8,1 7,7 7,8 7,2 6,2 6,3 23 12 37 20 W 1029,9 1,8 0 0,0
20.03.2019 19:00:00 8,3 7,5 7,8 7,2 6,1 6,3 26 14 41 22 W 1029,1 3,6 0 0,1
20.03.2019 18:00:00 8,4 7,4 7,9 7,3 6,0 6,3 20 11 32 18 W 1029,0 2,9 0 0,0
20.03.2019 17:00:00 8,2 7,2 7,9 7,4 5,9 6,3 14 8 36 20 WSW 1028,7 3,4 0 0,0
20.03.2019 16:00:00 8,6 6,4 8,4 7,5 5,8 6,3 22 12 45 24 WSW 1028,8 6 0 0,0
20.03.2019 15:00:00 8,8 5,3 8,7 7,9 5,5 6,3 24 13 40 21 WSW 1028,2 8 0 0,0
20.03.2019 14:00:00 9,0 4,8 9,2 8,1 5,1 6,3 23 12 37 20 SW 1028,9 17 0 0,0
20.03.2019 13:00:00 8,9 4,5 9,2 8,0 4,6 6,3 20 11 35 19 SW 1029,0 18 0 0,0
20.03.2019 12:00:00 8,2 3,7 8,9 7,3 4,1 6,3 22 12 37 20 SW 1029,0 13 0 0,0
20.03.2019 11:00:00 7,2 2,9 8,3 6,1 3,6 6,3 18 10 34 18 SW 1029,2 15 0 0,0
20.03.2019 10:00:00 5,4 1,4 6,1 4,3 3,3 6,3 16 8 30 16 SW 1029,4 16 0 0,0
20.03.2019 09:00:00 3,7 0,4 4,3 1,9 3,2 6,3 15 8 26 14 SW 1029,4 35 2 0,0
20.03.2019 08:00:00 2,6 -0,2 2,6 0,7 3,3 6,3 13 7 23 13 SW 1029,5 35 12 0,0

tt = temperature
td = dewpoint
tt 5cm = temperature 5cm
tt -5cm = temperature -5cm
tt -20cm = temperature -20cm
tt -100cm = temperature -100cm
ff = wind speed
fx = gusts
dd = wind direction
ppp = reduced air pressure
vv = visibility
sd = sunshine duration
rr = precipitation

Next stations